Weather History for Evergreen, AL

Change the Weather History Date:

Sunday, February 3, 2013

  Actual Average (KPRN) Record (KPRN)
Temperature  
Mean Temperature 50 °F -  
Max Temperature 66 °F 59 °F 82 °F (1957)
Min Temperature 35 °F 37 °F 11 °F (1951)
Degree Days  
Heating Degree Days 14    
Moisture  
Dew Point 37 °F    
Average Humidity 76    
Maximum Humidity 93    
Minimum Humidity 24    
Precipitation  
Precipitation 0.00 in - - ()
Sea Level Pressure  
Sea Level Pressure 30.20 in    
Wind  
Wind Speed 2 mph (NW)    
Max Wind Speed 13 mph    
Max Gust Speed 21 mph    
Visibility 6 miles    
Events Fog    
Averages and records for this station are not official NWS values.
T = Trace of Precipitation, MM = Missing Value Source: NWS Daily Summary

Daily Weather History Graph

Daily Weather History Graph

Search for Another Location

Airport:

Trip Planner

Search our weather history database for the weather conditions in past years. The results will help you decide how hot, cold, wet, or windy it might be!

Date:

Astronomy

Feb. 03, 2013 Rise Set
Actual Time 6:39 AM CST 5:25 PM CST
Civil Twilight 6:13 AM CST 5:50 PM CST
Nautical Twilight 5:44 AM CST 6:19 PM CST
Astronomical Twilight 5:16 AM CST 6:48 PM CST
Moon 12:05 AM CST (2/3) 11:04 AM CST (2/3)
Length of Visible Light 11h 36m
Length of Day
10h 45m
Waning Gibbous, 48% of the Moon is Illuminated
Feb 3
Waning Gibbous
Feb 10
New
Feb 17
First Quarter
Feb 25
Full
Mar 4
Last Quarter

Hourly Weather History & Observations

Time (CST) Temp. Dew Point Humidity Pressure Visibility Wind Dir Wind Speed Gust Speed Precip Events Conditions
12:22 AM 53.6 °F 46.4 °F 77% 30.22 in 10.0 mi NW 3.5 mph - N/A   Overcast
12:53 AM 53.1 °F 48.0 °F 83% 30.22 in 10.0 mi Calm Calm - N/A   Overcast
1:53 AM 52.0 °F 46.0 °F 80% 30.22 in 10.0 mi NNW 6.9 mph - N/A   Mostly Cloudy
2:53 AM 48.9 °F 45.0 °F 86% 30.23 in 10.0 mi NNW 4.6 mph - N/A   Overcast
3:53 AM 46.0 °F 43.0 °F 89% 30.22 in 8.0 mi Calm Calm - N/A   Clear
4:02 AM 44.6 °F 42.8 °F 93% 30.21 in 1.8 mi Calm Calm - N/A   Clear
4:11 AM 44.6 °F 42.8 °F 93% 30.21 in 0.5 mi Calm Calm - N/A Fog Fog
4:28 AM 42.8 °F 39.2 °F 87% 30.22 in 2.5 mi Calm Calm - N/A   Clear
4:35 AM 41.0 °F 39.2 °F 93% 30.22 in 5.0 mi Calm Calm - N/A   Clear
4:45 AM 41.0 °F 37.4 °F 87% 30.22 in 1.8 mi Calm Calm - N/A   Clear
4:51 AM 39.2 °F 37.4 °F 93% 30.22 in 2.0 mi Calm Calm - N/A   Partly Cloudy
4:53 AM 39.9 °F 37.9 °F 93% 30.22 in 3.0 mi Calm Calm - N/A   Partly Cloudy
5:16 AM 39.2 °F 37.4 °F 93% 30.23 in 2.5 mi Calm Calm - N/A   Mostly Cloudy
5:27 AM 39.2 °F 37.4 °F 93% 30.23 in 1.5 mi Calm Calm - N/A   Mostly Cloudy
5:32 AM 39.2 °F 37.4 °F 93% 30.23 in 3.0 mi Calm Calm - N/A   Overcast
5:40 AM 39.2 °F 35.6 °F 87% 30.23 in 1.8 mi Calm Calm - N/A   Overcast
5:49 AM 37.4 °F 35.6 °F 93% 30.23 in 0.5 mi Calm Calm - N/A Fog Fog
5:53 AM 37.9 °F 36.0 °F 93% 30.23 in 0.5 mi Calm Calm - N/A Fog Fog
6:13 AM 37.4 °F 35.6 °F 93% 30.23 in 1.5 mi Calm Calm - N/A   Mostly Cloudy
6:15 AM 37.4 °F 35.6 °F 93% 30.23 in 2.0 mi Calm Calm - N/A   Scattered Clouds
6:21 AM 37.4 °F 33.8 °F 87% 30.24 in 1.0 mi Calm Calm - N/A   Mist
6:29 AM 37.4 °F 33.8 °F 87% 30.24 in 0.5 mi Calm Calm - N/A Fog Fog
6:33 AM 37.4 °F 33.8 °F 87% 30.24 in 1.0 mi Calm Calm - N/A   Clear
6:53 AM 36.0 °F 34.0 °F 93% 30.25 in 1.8 mi Calm Calm - N/A   Clear
6:58 AM 35.6 °F 33.8 °F 93% 30.25 in 3.0 mi Calm Calm - N/A   Clear
7:19 AM 37.4 °F 35.6 °F 93% 30.25 in 5.0 mi Calm Calm - N/A   Partly Cloudy
7:53 AM 42.1 °F 39.0 °F 89% 30.26 in 6.0 mi Calm Calm - N/A   Partly Cloudy
8:53 AM 52.0 °F 44.1 °F 74% 30.25 in 10.0 mi Calm Calm - N/A   Clear
9:53 AM 57.9 °F 34.0 °F 41% 30.25 in 10.0 mi Variable 5.8 mph - N/A   Clear
10:53 AM 61.0 °F 32.0 °F 34% 30.23 in 10.0 mi NW 8.1 mph - N/A   Clear
11:53 AM 63.0 °F 30.9 °F 30% 30.20 in 10.0 mi West 9.2 mph - N/A   Clear
12:53 PM 64.9 °F 27.0 °F 24% 30.16 in 10.0 mi NNW 8.1 mph 20.7 mph N/A   Clear
1:53 PM 64.9 °F 27.0 °F 24% 30.13 in 10.0 mi Variable 4.6 mph - N/A   Clear
2:53 PM 66.0 °F 28.9 °F 25% 30.13 in 10.0 mi West 12.7 mph 17.3 mph N/A   Clear
3:53 PM 66.0 °F 28.9 °F 25% 30.12 in 10.0 mi Variable 4.6 mph - N/A   Clear
4:53 PM 64.0 °F 28.9 °F 27% 30.12 in 10.0 mi Calm Calm - N/A   Clear
5:53 PM 53.1 °F 36.0 °F 52% 30.12 in 10.0 mi Calm Calm - N/A   Clear
6:53 PM 48.0 °F 37.9 °F 68% 30.14 in 10.0 mi Calm Calm - N/A   Clear
7:53 PM 44.1 °F 37.0 °F 76% 30.14 in 10.0 mi Calm Calm - N/A   Clear
8:53 PM 41.0 °F 36.0 °F 82% 30.15 in 10.0 mi Calm Calm - N/A   Clear
9:53 PM 41.0 °F 36.0 °F 82% 30.15 in 10.0 mi Calm Calm - N/A   Clear
10:53 PM 39.0 °F 34.0 °F 82% 30.15 in 10.0 mi Calm Calm - N/A   Clear
11:53 PM 37.9 °F 34.0 °F 86% 30.15 in 10.0 mi Calm Calm - N/A   Clear